[[{"header":{"parameterUnit":"m.s-1","parameterCategory":1,"la1":30.2991,"la2":30.254,"lo1":-89.0895,"lo2":-89.0444,"dy":0.0017,"dx":0.0017,"nx":28,"ny":28,"refTime":"2023-10-25T21:00:00:Z","depth":0,"parameterNumber":2,"parameterNumberName":"U-component_of_WINDS"},"data":[0,0,0,0,0,0,0,0,0,0,0,0,0,0,0,0,0,0,0,0,0,0,0,0,0,0,0,0,0,0,0,0,0,0,0,0,0,0,0,0,0,0,0,0,0,0,0,0,0,0,0,0,0,0,0,0,0,0,-5.462,-5.4622,0,-5.4803,-5.4805,-5.4808,-5.4822,-5.482,-5.4818,-5.4816,-5.5001,-5.5008,-5.5014,0,0,0,0,0,0,0,0,0,0,0,0,0,-5.428,-5.4287,-5.462,-5.4622,-5.4624,-5.4803,-5.4806,-5.4808,-5.4823,-5.482,-5.4818,-5.4816,-5.4999,-5.5007,-5.5015,0,0,0,0,0,0,0,0,0,0,0,0,0,-5.4442,-5.4289,-5.4619,-5.4653,-5.4658,-5.4803,-5.4806,-5.4809,-5.4823,-5.482,-5.4817,-5.4814,-5.4996,-5.5006,-5.5016,-5.5138,0,0,-5.5047,-5.5052,0,0,0,0,0,0,0,0,-5.4433,-5.4455,-5.4646,-5.4651,-5.4657,-5.4787,-5.4754,-5.4919,-5.4824,-5.476,-5.4816,-5.4813,-5.4932,-5.4947,-5.4988,-5.5147,-5.5155,-5.5048,-5.5054,-5.5059,-5.5061,0,0,0,0,0,0,0,-5.4422,-5.4447,-5.4692,-5.4649,-5.4655,-5.4659,-5.4678,-5.4785,-5.4861,-5.4766,-5.4767,-5.4789,-5.4934,-5.4978,-5.4993,-5.5158,-5.5048,-5.5057,-5.5063,-5.5067,-5.5427,-5.5431,0,0,0,0,0,0,-5.4404,-5.4437,-5.4686,-5.4698,-5.4535,-5.4667,-5.4689,-5.4748,-5.4859,-5.4874,-5.4791,-5.4789,-5.4962,-5.4981,-5.4999,-5.515,-5.5059,-5.5068,-5.5074,-5.5424,-5.5428,-5.5432,0,0,0,0,0,0,-5.4397,-5.4426,-5.4679,-5.4568,-5.4601,-5.4676,-5.4742,-5.4753,-5.4797,-5.4879,-5.4892,-5.4822,-5.4961,-5.4985,-5.5104,-5.5156,-5.5073,-5.5082,-5.542,-5.5425,-5.543,-5.5451,0,0,0,0,0,0,-5.4387,-5.4424,-5.4471,-5.4569,-5.4606,-5.4781,-5.4746,-5.4759,-5.4815,-5.4814,-5.4911,-5.4925,-5.496,-5.5089,-5.5114,-5.5169,-5.509,-5.5415,-5.5422,-5.5428,-5.5446,-5.5456,-5.5465,0,0,0,0,0,-5.4375,-5.4469,-5.4473,-5.4503,-5.4667,-5.4784,-5.4805,-5.4845,-5.4819,-5.4867,-5.492,-5.4922,-5.5147,-5.5101,-5.513,-5.5188,-5.5412,-5.542,-5.5428,-5.5442,-5.5454,-5.5465,0,0,0,0,0,0,-5.4373,-5.4482,-5.4488,-5.4617,-5.4691,-5.4786,-5.4848,-5.4857,-5.494,-5.4935,-5.4981,-5.5003,-5.512,-5.5166,-5.5113,-5.5313,-5.5277,-5.5291,-5.5278,-5.529,-5.53,-5.5285,-5.5098,0,0,0,0,0,-5.4388,-5.4474,-5.4565,-5.4669,-5.4707,-5.4771,-5.4823,-5.4848,-5.4927,-5.4958,-5.5019,-5.5095,-5.5183,-5.524,-5.5325,-5.5454,-5.5475,-5.5509,-5.5518,-5.5526,-5.5536,-5.5608,-5.5624,-5.5458,-5.5458,-5.5457,0,0,-5.4418,-5.4489,-5.454,-5.4671,-5.4731,-5.4819,-5.4797,-5.4891,-5.4957,-5.4972,-5.5088,-5.5137,-5.5224,-5.5349,-5.5407,-5.5391,-5.5588,-5.5536,-5.5541,-5.5548,-5.5618,-5.5633,-5.5647,-5.5463,-5.5462,-5.5461,0,0,-5.4519,-5.4581,-5.4675,-5.4737,-5.483,-5.4873,-5.4896,-5.4991,-5.5024,-5.5142,-5.5155,-5.5234,-5.5385,-5.5447,-5.5498,-5.5626,-5.563,-5.5652,-5.5701,-5.5771,-5.5784,-5.5796,-5.584,-5.5856,-5.5663,-5.5663,-5.5663,0,-5.4544,-5.4678,-5.4722,-5.4817,-5.4873,-5.4894,-5.4989,-5.5047,-5.5163,-5.5201,-5.5183,-5.5373,-5.5433,-5.5573,-5.5604,-5.5646,-5.5673,-5.564,-5.5779,-5.5791,-5.5803,-5.5846,-5.5862,-5.5665,-5.5665,-5.5665,-5.5665,0,-5.4705,-5.4798,-5.4863,-5.4976,-5.5041,-5.5135,-5.5193,-5.5253,-5.5273,-5.5318,-5.5438,-5.5512,-5.5613,-5.5649,-5.5669,-5.5792,-5.5779,-5.5769,-5.5734,-5.582,-5.5861,-5.5878,-5.5668,-5.5667,-5.5667,-5.5666,0,0,-5.4806,-5.4944,-5.4967,-5.5019,-5.5124,-5.5197,-5.5293,-5.5393,-5.5443,-5.5524,-5.5604,-5.5733,-5.5725,-5.5784,-5.5811,-5.5873,-5.5968,-5.5855,-5.5858,-5.5872,-5.6108,-5.6113,-5.6132,-5.5974,-5.5977,-5.598,-5.61,0,-5.4917,-5.5088,-5.5132,-5.5278,-5.5364,-5.5387,-5.547,-5.5544,-5.5589,-5.5669,-5.5718,-5.5808,-5.5792,-5.5827,-5.5889,-5.5943,-5.6016,-5.5936,-5.6048,-5.6051,-5.6023,-5.6153,-5.6159,-5.6269,-5.6117,-5.612,-5.6122,0,-5.5069,-5.5154,-5.5308,-5.5404,-5.5442,-5.5516,-5.5612,-5.5689,-5.5773,-5.5802,-5.5868,-5.5891,-5.5991,-5.5953,-5.6092,-5.6037,-5.6086,-5.612,-5.6125,-5.6135,-5.609,-5.6165,-5.6306,-5.6321,-5.6148,-5.6146,-5.6144,0,-5.5125,-5.5278,-5.5391,-5.5435,-5.5549,-5.5601,-5.5651,-5.5733,-5.5791,-5.5876,-5.5914,-5.6008,-5.606,-5.6132,-5.618,-5.6148,-5.6315,-5.628,-5.6341,-5.6339,-5.6372,-5.6369,-5.652,-5.6407,-5.6407,-5.6407,-5.6407,0,-5.5243,-5.5337,-5.5418,-5.5487,-5.5592,-5.5642,-5.5745,-5.5796,-5.5869,-5.5948,-5.5974,-5.6047,-5.6107,-5.6189,-5.6227,-5.6336,-5.6359,-5.6384,-5.6393,-5.6381,-5.6377,-5.6412,-5.6404,-5.6411,-5.641,-5.641,-5.6409,0,-5.5323,-5.5381,-5.5505,-5.5605,-5.5632,-5.5705,-5.579,-5.5858,-5.5906,-5.6005,-5.6032,-5.6106,-5.6203,-5.6259,-5.6382,-5.6407,-5.6528,-5.6534,-5.65,-5.6503,-5.6559,-5.6553,-5.6736,-5.6763,-5.6634,-5.6635,-5.6636,0,-5.5393,-5.5466,-5.5574,-5.5629,-5.5681,-5.5769,-5.5829,-5.5882,-5.5943,-5.6047,-5.6102,-5.6202,-5.6284,-5.6439,-5.6503,-5.6598,-5.6605,-5.6663,-5.6619,-5.6605,-5.6604,-5.6598,-5.6606,-5.6669,-5.6671,-5.6672,-5.6672,0,-5.5511,-5.5537,-5.5623,-5.572,-5.5791,-5.587,-5.5948,-5.5991,-5.6057,-5.6125,-5.6226,-5.629,-5.6417,-5.6515,-5.6615,-5.6667,-5.668,-5.6687,-5.6705,-5.6692,-5.6669,-5.6681,-5.6518,-5.6681,-5.668,-5.668,-5.6679,-5.6679,-5.5588,-5.5654,-5.5741,-5.5836,-5.59,-5.5973,-5.6042,-5.6099,-5.6184,-5.6292,-5.6318,-5.6424,-5.6509,-5.6645,-5.6699,-5.6783,-5.6772,-5.6799,-5.6806,-5.6811,-5.6813,-5.6658,-5.6802,-5.6801,-5.6801,-5.6801,-5.6801,0,-5.5707,-5.5764,-5.5852,-5.596,-5.6036,-5.6045,-5.6132,-5.6194,-5.6287,-5.6365,-5.6446,-5.6563,-5.6659,-5.6732,-5.6831,-5.6884,-5.6893,-5.6908,-5.6903,-5.6915,-5.6817,-5.679,-5.6899,-5.6899,-5.6899,-5.6899,-5.6899,-5.6899,-5.5777,-5.5889,-5.5926,-5.607,-5.6127,-5.6232,-5.6281,-5.6348,-5.6411,-5.654,-5.6621,-5.6669,-5.6745,-5.685,-5.6939,-5.6958,-5.6992,-5.7006,-5.7026,-5.6932,-5.6922,-5.6911,-5.6887,-5.7014,-5.7014,-5.7117,-5.7118,-5.7118]},{"header":{"parameterUnit":"m.s-1","parameterCategory":1,"la1":30.2991,"la2":30.254,"lo1":-89.0895,"lo2":-89.0444,"dy":0.0017,"dx":0.0017,"nx":28,"ny":28,"refTime":"2023-10-25T21:00:00:Z","depth":0,"parameterNumber":3,"parameterNumberName":"V-component_of_WINDS"},"data":[0,0,0,0,0,0,0,0,0,0,0,0,0,0,0,0,0,0,0,0,0,0,0,0,0,0,0,0,0,0,0,0,0,0,0,0,0,0,0,0,0,0,0,0,0,0,0,0,0,0,0,0,0,0,0,0,0,0,2.4635,2.4636,0,2.4716,2.4717,2.4717,2.4739,2.4739,2.4738,2.4738,2.4817,2.482,2.4822,0,0,0,0,0,0,0,0,0,0,0,0,0,2.4499,2.4502,2.4635,2.4636,2.4637,2.4716,2.4717,2.4718,2.4739,2.4739,2.4738,2.4737,2.4817,2.482,2.4823,0,0,0,0,0,0,0,0,0,0,0,0,0,2.4567,2.4502,2.4635,2.4657,2.466,2.4715,2.4717,2.4718,2.4739,2.4739,2.4738,2.4737,2.4816,2.4819,2.4823,2.4861,0,0,2.4835,2.4836,0,0,0,0,0,0,0,0,2.4563,2.4572,2.4653,2.4656,2.4659,2.4717,2.4698,2.4766,2.4739,2.4709,2.4738,2.4737,2.4784,2.4791,2.4807,2.4864,2.4868,2.4835,2.4837,2.4839,2.484,0,0,0,0,0,0,0,2.4558,2.4568,2.4667,2.4654,2.4658,2.4663,2.4672,2.4711,2.475,2.4712,2.4714,2.4723,2.4786,2.4803,2.4809,2.4869,2.4835,2.4838,2.4841,2.4842,2.4964,2.4965,0,0,0,0,0,0,2.455,2.4564,2.4664,2.4669,2.4608,2.4666,2.4676,2.4699,2.4749,2.4756,2.4723,2.4724,2.4797,2.4805,2.4812,2.4862,2.4839,2.4843,2.4845,2.4963,2.4965,2.4966,0,0,0,0,0,0,2.4547,2.4559,2.4661,2.4617,2.4631,2.4669,2.4695,2.4701,2.4719,2.4758,2.4765,2.4734,2.4797,2.4807,2.4849,2.4865,2.4844,2.4848,2.4962,2.4964,2.4965,2.496,0,0,0,0,0,0,2.4543,2.4557,2.4572,2.4618,2.4633,2.4697,2.4696,2.4703,2.4725,2.4726,2.477,2.4777,2.4797,2.4844,2.4853,2.487,2.4851,2.4961,2.4963,2.4965,2.4959,2.4961,2.4962,0,0,0,0,0,2.4538,2.4566,2.4573,2.4585,2.4652,2.4698,2.4707,2.473,2.4726,2.4742,2.4768,2.4775,2.4861,2.4848,2.4859,2.4876,2.496,2.4962,2.4964,2.4958,2.496,2.4962,0,0,0,0,0,0,2.452,2.4572,2.458,2.4624,2.4657,2.4702,2.4721,2.4732,2.4765,2.4765,2.4792,2.4802,2.4843,2.4864,2.4848,2.4917,2.4911,2.4915,2.4902,2.4905,2.4907,2.4901,2.4854,0,0,0,0,0,2.4521,2.4554,2.4598,2.4632,2.4649,2.4682,2.4703,2.4719,2.4753,2.4767,2.4795,2.4828,2.4863,2.4885,2.4918,2.4962,2.4973,2.498,2.4981,2.4983,2.4986,2.5013,2.5018,2.4973,2.4973,2.4972,0,0,2.4523,2.4556,2.4575,2.463,2.4657,2.4691,2.4694,2.4728,2.4754,2.4771,2.4815,2.4837,2.4875,2.4919,2.494,2.4938,2.5002,2.4986,2.4986,2.4989,2.5016,2.502,2.5024,2.4974,2.4974,2.4974,0,0,2.4546,2.4573,2.4606,2.4634,2.4676,2.4699,2.4707,2.4751,2.4767,2.4811,2.4825,2.4856,2.4914,2.4942,2.4963,2.4999,2.5008,2.5009,2.5019,2.5045,2.5049,2.5052,2.5067,2.5071,2.5013,2.5013,2.5013,0,2.4543,2.4596,2.4622,2.4657,2.4681,2.4701,2.4735,2.476,2.481,2.4826,2.4824,2.49,2.4926,2.4978,2.4987,2.5003,2.5014,2.5005,2.5046,2.505,2.5054,2.5068,2.5073,2.5013,2.5013,2.5013,2.5013,0,2.4592,2.4628,2.4649,2.4699,2.4726,2.476,2.4792,2.4816,2.483,2.4853,2.4898,2.4932,2.4974,2.4987,2.5,2.5042,2.5039,2.5041,2.5036,2.5057,2.5071,2.5077,2.5013,2.5013,2.5013,2.5013,0,0,2.4603,2.4669,2.4677,2.4701,2.475,2.4778,2.4814,2.4857,2.4878,2.4912,2.4944,2.4994,2.4997,2.5022,2.5038,2.5061,2.509,2.506,2.5062,2.5066,2.514,2.5139,2.5145,2.5096,2.5097,2.5098,2.5137,0,2.4633,2.4699,2.4724,2.4778,2.4813,2.4833,2.4865,2.4898,2.4921,2.4954,2.4979,2.5015,2.5015,2.5031,2.5054,2.5081,2.5105,2.5079,2.5126,2.5128,2.5117,2.5152,2.515,2.5186,2.5143,2.5143,2.5144,0,2.4675,2.4713,2.477,2.4818,2.4833,2.4861,2.4904,2.4935,2.4974,2.4989,2.5018,2.5034,2.5073,2.5065,2.512,2.5102,2.5123,2.5139,2.5141,2.5147,2.5138,2.516,2.5197,2.5203,2.5153,2.5152,2.5151,0,2.468,2.4744,2.4788,2.4808,2.4863,2.4883,2.4907,2.4945,2.4971,2.5008,2.5024,2.5065,2.5087,2.5118,2.5145,2.5137,2.5199,2.5192,2.5213,2.5213,2.5226,2.5224,2.5268,2.5237,2.5237,2.5237,2.5237,0,2.4711,2.4746,2.4792,2.4818,2.4859,2.4888,2.4928,2.4953,2.4987,2.502,2.5039,2.5069,2.5102,2.5136,2.5157,2.5201,2.521,2.5224,2.523,2.5223,2.5222,2.5238,2.5237,2.5238,2.5238,2.5238,2.5238,0,2.4723,2.4755,2.4804,2.4854,2.4867,2.4895,2.4937,2.4965,2.4989,2.503,2.5042,2.508,2.5122,2.5152,2.5205,2.522,2.5267,2.5272,2.5255,2.5258,2.5277,2.5276,2.5334,2.5344,2.5305,2.5305,2.5305,0,2.4741,2.4769,2.4822,2.4846,2.4871,2.4908,2.4935,2.4966,2.4992,2.5041,2.5062,2.5106,2.5142,2.5208,2.5241,2.5283,2.5289,2.5307,2.5295,2.5289,2.5292,2.529,2.5294,2.5309,2.5309,2.5309,2.5309,0,2.477,2.4786,2.4823,2.4868,2.4899,2.4935,2.4971,2.4989,2.5026,2.5056,2.51,2.5128,2.5184,2.5228,2.5273,2.5298,2.531,2.5313,2.532,2.5314,2.5304,2.5312,2.5261,2.5311,2.5311,2.5311,2.5311,2.5311,2.4787,2.4814,2.4857,2.4899,2.493,2.4964,2.4993,2.5022,2.506,2.5109,2.5124,2.5171,2.5211,2.5274,2.5299,2.5336,2.5335,2.5345,2.5348,2.535,2.5351,2.5298,2.5344,2.5344,2.5344,2.5344,2.5344,0,2.4819,2.4848,2.4887,2.4938,2.4972,2.4982,2.5023,2.505,2.5091,2.5128,2.5165,2.5217,2.526,2.5297,2.5341,2.5364,2.5371,2.5375,2.5374,2.538,2.5348,2.5338,2.5368,2.5368,2.5368,2.5368,2.5368,2.5368,2.4839,2.4886,2.4907,2.4969,2.4998,2.5045,2.5068,2.51,2.513,2.5187,2.5224,2.5248,2.5286,2.5334,2.5375,2.5384,2.5401,2.5403,2.5415,2.5384,2.5382,2.5379,2.537,2.5406,2.5406,2.5444,2.5444,2.5444]}]]